Indian Springs, NV

7:50 PM PST on February 12, 2016 (GMT -0800)
Indian Springs Air Force Auxiliary

Weather History for KINS - March, 2012

Change the Weather History Date:

Wednesday, March 28, 2012

  Actual Average (KDRA) Record (KDRA)
Temperature  
Mean Temperature 60 °F -  
Max Temperature 70 °F 67 °F 84 °F (2015)
Min Temperature 50 °F 42 °F 32 °F (1998)
Degree Days  
Heating Degree Days 5    
Growing Degree Days 10 (Base 50)    
Moisture  
Dew Point 22 °F    
Average Humidity 24    
Maximum Humidity 35    
Minimum Humidity 16    
Precipitation  
Precipitation 0.00 in - - ()
Sea Level Pressure  
Sea Level Pressure 29.86 in    
Wind  
Wind Speed 6 mph (North)    
Max Wind Speed 22 mph    
Max Gust Speed 22 mph    
Visibility 10 miles    
Events      
Averages and records for this station are not official NWS values.
T = Trace of Precipitation, MM = Missing Value Source: NWS Daily Summary

Daily Weather History Graph

Daily Weather History Graph

Search for Another Location

Airport or City:

Trip Planner

Search our weather history database for the weather conditions in past years. The results will help you decide how hot, cold, wet, or windy it might be!

Date:

Astronomy

Mar. 28, 2012 Rise Set
Actual Time 6:33 AM PDT 7:01 PM PDT
Civil Twilight 6:07 AM PDT 7:27 PM PDT
Nautical Twilight 5:37 AM PDT 7:58 PM PDT
Astronomical Twilight 5:06 AM PDT 8:29 PM PDT
Moon 10:02 AM PDT (3/28) No Moon Set
Length of Visible Light 13h 20m
Length of Day
12h 28m
Waxing Crescent, 31% of the Moon is Illuminated
Mar 28
Waxing Crescent
Mar 30
First Quarter
Apr 6
Full
Apr 13
Last Quarter
Apr 21
New

Hourly Weather History & Observations

Time (PDT) Temp. Dew Point Humidity Pressure Visibility Wind Dir Wind Speed Gust Speed Precip Events Conditions
12:55 AM 52.7 °F 15.8 °F 23% 29.85 in 10.0 mi SE 3.5 mph - N/A   Clear
1:55 AM 54.0 °F 16.2 °F 23% 29.84 in 10.0 mi West 3.5 mph - N/A   Clear
2:55 AM 54.0 °F 16.9 °F 23% 29.83 in 10.0 mi North 8.1 mph - N/A   Clear
3:55 AM 52.2 °F 20.3 °F 29% 29.82 in 10.0 mi East 4.6 mph - N/A   Clear
4:55 AM 53.8 °F 20.3 °F 27% 29.82 in 10.0 mi NE 3.5 mph - N/A   Clear
5:55 AM 50.9 °F 20.3 °F 30% 29.83 in 10.0 mi East 5.8 mph - N/A   Clear
6:55 AM 54.0 °F 20.7 °F 27% 29.85 in 10.0 mi Calm Calm - N/A   Clear
7:55 AM 52.3 °F 18.9 °F 27% 29.89 in 10.0 mi NNE 9.2 mph - N/A   Clear
8:55 AM 59.4 °F 18.5 °F 20% 29.89 in 10.0 mi Calm Calm - N/A   Clear
9:55 AM 60.6 °F 19.6 °F 20% 29.90 in 10.0 mi ENE 3.5 mph - N/A   Clear
10:55 AM 64.0 °F 19.9 °F 18% 29.90 in 10.0 mi Variable 3.5 mph - N/A   Partly Cloudy
11:55 AM 67.6 °F 20.8 °F 17% 29.88 in 10.0 mi Variable 4.6 mph - N/A   Partly Cloudy
12:55 PM 68.4 °F 21.2 °F 17% 29.87 in 10.0 mi Calm Calm - N/A   Mostly Cloudy
1:55 PM 69.3 °F 21.6 °F 16% 29.85 in 10.0 mi Calm Calm - N/A   Mostly Cloudy
2:55 PM 70.2 °F 23.0 °F 17% 29.83 in 10.0 mi WNW 15.0 mph 21.9 mph N/A   Mostly Cloudy
3:55 PM 68.2 °F 23.5 °F 19% 29.83 in 10.0 mi NNW 15.0 mph - N/A   Scattered Clouds
4:55 PM 67.3 °F 24.4 °F 20% 29.83 in 10.0 mi WNW 21.9 mph - N/A   Partly Cloudy
5:55 PM 66.0 °F 25.3 °F 22% 29.83 in 10.0 mi WNW 18.4 mph - N/A   Clear
6:55 PM 64.6 °F 26.6 °F 24% 29.85 in 10.0 mi North 12.7 mph - N/A   Clear
7:02 PM 64.4 °F 26.6 °F 24% 29.84 in 10.0 mi North 13.8 mph - N/A   Clear
7:55 PM 61.7 °F 27.7 °F 28% 29.87 in 10.0 mi North 9.2 mph - N/A   Clear
8:55 PM 58.6 °F 26.4 °F 29% 29.88 in 10.0 mi North 16.1 mph - N/A   Clear
9:55 PM 57.6 °F 27.1 °F 31% 29.89 in 10.0 mi NW 5.8 mph - N/A   Clear
10:55 PM 53.1 °F 25.7 °F 35% 29.91 in 10.0 mi East 3.5 mph - N/A   Clear
11:55 PM 53.6 °F 26.1 °F 35% 29.90 in 10.0 mi West 3.5 mph - N/A   Clear